Regional Weather Roundup
Issued by NWS

Home | Current Version | Previous Version | Text Only | Print | Product List | Glossary Off
Versions: 1 2 3 4 5 6 7 8 9 10 11 12 13 14 15 16 17 18 19 20 21 22 23 24 25 26 27 28 29 30 31 32 33 34 35 36 37 38 39 40 41 42 43 44 45 46 47 48 49 50

000
ASUS45 KSLC 271910
RWRUT

UTAH REGIONAL WEATHER ROUNDUP
NATIONAL WEATHER SERVICE SALT LAKE CITY UT
100 PM MDT MON JUL 27 2015

UTZ001>011-023>025-272000-

NORTHERN UTAH

CITY           SKY/WX    TMP DP  RH WIND       PRES   REMARKS
BRIGHAM CITY   CLOUDY    60  47  61 E7        30.06F
HILL AFB       PTSUNNY   63  48  59 N15G25    30.08S
LOGAN          NOT AVBL
OGDEN          LGT RAIN  63  49  60 N16       30.06R
PROVO AIRPORT  MOSUNNY   73  45  35 NW21G39   30.00R
SALT LAKE CITY CLOUDY    70  45  40 N23       30.04R
VERNAL         MOSUNNY   86  32  14 SW22G29   29.88F
WENDOVER       MOSUNNY   75  37  25 NW13G23   30.02S
HEBER CITY     MOSUNNY   81  32  17 W15G24    29.99R
WEST JORDAN    PTSUNNY   72  45  37 N20       30.06R

$$

UTZ012>022-026-027-272000-

SOUTHERN/CENTRAL UTAH

CITY           SKY/WX    TMP DP  RH WIND       PRES   REMARKS
BLANDING       SUNNY     84  33  16 SW20G29   30.15F
BRYCE CANYON   SUNNY     76  29  17 SW18G28   30.21F
CEDAR CITY     SUNNY     83  22  10 S14G24    30.06F
DELTA          SUNNY     80  32  17 NW18G30   30.00R
HANKSVILLE     SUNNY     91  30  11 SW21G30   29.92F
MILFORD        SUNNY     87  27  11 S17G30    29.99F
MOAB/CYNLANDS  SUNNY     92  31  11 SW22G47   29.90F
PRICE          SUNNY     87  21   9 W13G23    29.98S
ST GEORGE      PTCLDY    91  34  13 NW8       29.92F
KANAB          SUNNY     88  30  12 W14G22    30.09F

$$

REGIONAL REPORTS     COLORADO/ARIZONA

CITY           SKY/WX    TMP DP  RH WIND       PRES   REMARKS
CRAIG, CO      MOSUNNY   87  40  19 SW28G37   29.98F
GRAND JUNCTION SUNNY     92  40  16 SW20G30   29.91F
RIFLE          MOSUNNY   91  38  15 SW25G37   29.95F
MONTROSE       MOSUNNY   87  44  22 W18G24    30.04F
CORTEZ         MOSUNNY   85  37  18 S13       30.11F
PAGE, AZ       SUNNY     93  24   8 SW9G18    29.95F
GRAND CANYON   SUNNY     82  33  17 W18G28    30.19F
KINGMAN        SUNNY     92  27   9 S21G29    29.97F
FLAGSTAFF      SUNNY     77  41  27 SW16G28   30.24R

$$

REGIONAL REPORTS    NEVADA/IDAHO/WYOMING

CITY           SKY/WX    TMP DP  RH WIND       PRES   REMARKS
LAS VEGAS, NV  SUNNY     94  33  11 SW5       29.83F
ELY            SUNNY     72  28  19 W12       30.13S
ELKO           SUNNY     70  36  28 W12G24    30.11R
POCATELLO, ID  PTSUNNY   53  48  83 S13       30.07R
BURLEY         MOSUNNY   62  43  49 W16G25    30.05R
EVANSTON, WY   SUNNY     68  39  34 W25G36    30.07R
ROCK SPRINGS   MOSUNNY   83  28  13 SW36G44   29.92F
KEMMERER       SUNNY     70  34  26 W30G39    30.02R

$$


USA.gov is the U.S. government's official web portal to all federal, state and local government web resources and services.